Location: Aldenham
(51.6667°N, 0.3500°W)
Time: 06:37:05
(UTC+00:00)

A-11 Canister half - Pass Details

Date: 21 February 2026
Orbit: 1512 x 1687 km, 47.2° (Epoch: 8 March)

Event Time Altitude Azimuth Distance (km) Brightness Sun altitude
Rises 23:24:05 0° 269° (W) 4,933 11.8 -47.3°
Reaches altitude 10° 23:27:17 10° 267° (W) 3,934 11.2 -47.5°
Enters shadow 23:28:44 16° 266° (W) 3,493 10.9 -47.5°
Maximum altitude 23:37:15 68° 188° (S) 1,748 - -47.9°
Drops below altitude 10° 23:46:53 10° 108° (ESE) 3,810 - -48.2°
Sets 23:49:56 0° 106° (ESE) 4,771 - -48.3°
